Regional Weather Roundup
Issued by NWS

Home | Current Version | Previous Version | Text Only | Print | Product List | Glossary On
Versions: 1 2 3 4 5 6 7 8 9 10 11 12 13 14 15 16 17 18 19 20 21 22 23 24 25 26 27 28 29 30 31 32 33 34 35 36 37 38 39 40 41 42 43 44 45 46 47 48 49 50
000
ASUS45 KBOU 301310
RWRCO

WEATHER ROUNDUP FOR COLORADO
NATIONAL WEATHER SERVICE DENVER/BOULDER CO
700 AM MDT FRI SEP 30 2016

NOTE: "FAIR" INDICATES FEW OR NO CLOUDS BELOW 12000 FEET WITH NO
SIGNIFICANT WEATHER AND/OR OBSTRUCTIONS TO VISIBILITY.

COZ001>005-013-030-031-301400-
...NORTHWEST COLORADO...

CITY           SKY/WX    TMP DP  RH WIND       PRES   REMARKS
CRAIG          LGT RAIN  53  50  89 E5        30.35S
HAYDEN         CLOUDY    52  46  82 E5        30.37R
MEEKER         CLOUDY    52  52 100 CALM      30.37R
MOUNT WERNER   NOT AVBL
STEAMBOAT SPGS CLOUDY    49  49  99 CALM      30.38R
WALDEN           N/A     46  45  93 CALM      30.43S
$$

COZ006>008-011-301400-
...WEST CENTRAL VALLEYS...

CITY           SKY/WX    TMP DP  RH WIND       PRES   REMARKS
GRAND JUNCTION CLOUDY    56  55  97 SE6       30.31S
MONTROSE       CLOUDY    54  51  90 CALM      30.37S
EAGLE          CLOUDY    50  48  93 CALM      30.40R
RIFLE          CLOUDY    56  55  97 CALM      30.35S
DELTA          CLOUDY    57  56  94 CALM      30.34S
NUCLA          FOG       54  52  94 CALM      30.41R VSB 1/2
$$

COZ017>023-064>068-301400-
...SOUTHWEST COLORADO...

CITY           SKY/WX    TMP DP  RH WIND       PRES   REMARKS
DURANGO        CLOUDY    51  48  89 NE6       30.38S
CORTEZ         MOCLDY    47  46  97 E6        30.37R
PAGOSA SPRINGS CLOUDY    49  47  92 CALM      30.44S
TELLURIDE      FOG       46  46 100 CALM      30.51S VSB 1/4
WOLF CREEK PAS FOG       34  34 100 SW12      30.65R VSB 1/4 WCI  25
$$

COZ009-010-012-014-032>034-037-058>063-301400-
...CENTRAL COLORADO...

CITY           SKY/WX    TMP DP  RH WIND       PRES   REMARKS
ASPEN          LGT RAIN  50  46  86 N3        30.41S
BUENA VISTA    CLOUDY    50  35  57 CALM      30.40S
COPPER MTN     CLOUDY    41  36  81 W3        30.60S HAZE
BERTHOUD PASS  HAZE      32  19  59 NW14G22   30.62R VSB<1/4 WCI  22
COTTONWOOD PAS CLOUDY    50  37  62 W7G17     30.49S
GUNNISON       CLOUDY    48  43  82 CALM      30.43R
KREMMLING      CLOUDY    46  39  76 CALM      30.42R
LEADVILLE      CLOUDY    43  37  79 N8        30.48S
SALIDA         CLOUDY    58  39  50 SW13G18   30.45S
SUNLIGHT       FOG       43  43 100 SW7       30.58S VSB 1
WILKERSON PASS FAIR      39  32  75 SW12      30.57S
$$

COZ069>075-301400-
...SAN LUIS VALLEY/SANGRE DE CRISTO MOUNTAINS...

CITY           SKY/WX    TMP DP  RH WIND       PRES   REMARKS
ALAMOSA        MOCLDY    43  39  86 E5        30.39S
LA VETA PASS   FAIR      43  36  75 MISG      30.49R
SAGUACHE       NOT AVBL
$$

COZ035-036-038>040-301400-
...NORTHERN COLORADO FRONT RANGE...

CITY           SKY/WX    TMP DP  RH WIND       PRES   REMARKS
DENVER INTL AP MOCLDY    57  41  55 NW14      30.22R
DMNS CITY PARK   N/A     57  43  59 W1        30.23S
AURORA         MOCLDY    58  41  54 W3        30.24R
FRONT RANGE AP NOT AVBL
ERIE MUNI ARPT MOCLDY    55  42  61 CALM      30.22S
BOULDER MUN AP NOT AVBL
CENTENNIAL     CLOUDY    59  41  51 CALM      30.24S
BROOMFIELD     MOCLDY    59  41  51 NW12      30.24F
FORT COLLINS   FAIR      55  43  62 CALM      30.23R
LONGMONT       LGT RAIN  57  45  64 CALM      30.24S
$$

COZ041-046-047-076>085-087-088-301400-
...PIKES PEAK/PALMER DIVIDE AND SOUTHERN FOOTHILLS...

CITY           SKY/WX    TMP DP  RH WIND       PRES   REMARKS
COLO. SPRINGS  MOCLDY    53  38  56 CALM      30.26S
A. F. ACADEMY  MOCLDY    52  36  53 N7        30.26R
SCHRIEVER AFB  NOT AVBL
ELLICOTT       NOT AVBL
FALCON         FAIR      57  36  45 N7        30.30R
FORT CARSON    FAIR      50  38  64 CALM      30.22F HAZE
LIMON          FAIR      38  35  89 CALM      30.22S
MONUMENT HILL  CLOUDY    52  37  58 NW6       30.32S
TRINIDAD       FAIR      54  36  50 W7        30.24S
$$

COZ042>045-048>051-090-091-301400-
...NORTHEAST COLORADO...

CITY           SKY/WX    TMP DP  RH WIND       PRES   REMARKS
GREELEY ARPT   CLOUDY    54  43  66 CALM      30.22R
AKRON          FAIR      44  38  79 E6        30.19S
BURLINGTON     FAIR      45  39  79 SE13      30.20S
WRAY           FAIR      41  37  87 CALM      30.22F
STERLING       FAIR      43  39  87 NE7       30.19R
HOLYOKE        NOT AVBL
FORT MORGAN    FAIR      47  39  74 N9        30.19S
$$

COZ086-089-092>099-301400-
...SOUTHEAST COLORADO...

CITY           SKY/WX    TMP DP  RH WIND       PRES   REMARKS
PUEBLO         FAIR      49  38  65 CALM      30.19S
LA JUNTA       FAIR      47  40  76 N7        30.18R
LAMAR          FAIR      44  40  85 E9        30.15S
SPRINGFIELD      N/A     48  42  80 S6        30.18F
$$



USA.gov is the U.S. government's official web portal to all federal, state and local government web resources and services.